Simultaneous Nadir Overpasses (SNOs) Predictions

Prediction of SNOs between NOAA-20 and NOAA-19 Satellite Orbit:

Table of predicted SNOs for the next 14.0 days since TLE Epoch: 10/10/2020
Index Date (NOAA-20) Time (NOAA-20) Lat,Lon (NOAA-20) SZA (NOAA-20 ) Date (NOAA-19) Time (NOAA-19) Lat,Lon (NOAA-19) SZA (NOAA-19 ) Distance(km) Time Diff (sec)
1 10/16/2020 12:49:13 78.92, -42.39 89.18 10/16/2020 12:48:00 78.92, -43.14 89.27 16.07 73
2 10/16/2020 13:39:59 -78.97, 124.61 90.75 10/16/2020 13:38:59 -78.98, 124.57 90.71 1.46 60
3 10/16/2020 14:30:45 79.00, -68.27 89.31 10/16/2020 14:29:59 78.97, -68.26 89.30 3.13 46
4 10/16/2020 15:21:29 -78.97, 99.22 90.72 10/16/2020 15:20:59 -78.99, 99.20 90.68 2.80 30
5 10/16/2020 16:12:15 79.00, -93.66 89.34 10/16/2020 16:11:59 78.98, -93.63 89.33 1.70 16
6 10/16/2020 17:03:00 -79.01, 73.59 90.64 10/16/2020 17:03:00 -78.98, 73.57 90.66 3.21 0
7 10/16/2020 17:53:45 79.00,-119.05 89.37 10/16/2020 17:53:59 79.00,-119.00 89.36 1.09 14
8 10/16/2020 18:44:30 -79.01, 48.20 90.61 10/16/2020 18:45:00 -78.99, 48.21 90.63 1.58 30
9 10/16/2020 19:35:15 79.00,-144.44 89.40 10/16/2020 19:35:59 79.02,-144.37 89.39 2.17 44
10 10/16/2020 20:26:00 -79.01, 22.81 90.58 10/16/2020 20:27:00 -79.01, 22.84 90.61 0.63 60
11 10/16/2020 21:16:45 79.00,-169.83 89.43 10/16/2020 21:17:59 79.03,-169.74 89.42 3.66 74
